Torna al catalogo

STARLINK-34757

AttivoComunicazioniSSO
NORAD 64850·PAYLOAD·🇺🇸 United States

Lanciato Jul 19, 2025 da Vandenberg Space Force Base

Loading…

Prossimi Passaggi (prossime 24 ore)

TLE

AggiornatoSource: CelesTrak SupGP

Epoca: Sep 15, 2026, 03:54 UTC

1 64850C 25152J   26258.16298611 -.00081603  00000+0 -25328-2 0  2584
2 64850  97.2841 108.7855 0001849  92.0378 332.6529 15.33484535    13

Traccia STARLINK-34757 in tempo reale con AllMySat

Download on the App Store